Home   Weather   Mödling   Past weeks

Flag for Austria Past Weather in Mödling, Lower Austria, Austria — Yesterday and Last 2 Weeks

Now
49 °F

Overcast.


Feels Like: 48 °F
Forecast: 45 / 55 °F
Wind: 3 mph from Northwest

Location: Wien / Hohe Warte

Current Time: Oct 23, 2018 at 9:28:28 am

Latest Report: Oct 23, 2018 at 8:00 am


Visibility: 16 mi

Pressure: 30.29 "Hg

Humidity: 68%

Dew Point: 39 °F

Location of MödlingLocation

Past Weather in Mödling — Graph

°F

Mödling Temperature Yesterday

Maximum temperature yesterday: 58 °F (at 3:00 pm)
Minimum temperature yesterday: 42 °F (at 7:00 am)
Average temperature yesterday: 50 °F

High & Low Weather Summary for the Past Weeks

 TemperatureHumidityPressure
High73 °F (Oct 11, 3:00 pm)97% (Oct 10, 8:00 am)30.37 "Hg (Oct 10, 8:00 am)
Low42 °F (Oct 22, 7:00 am)30% (Oct 14, 3:00 pm)30.06 "Hg (Oct 18, 5:00 pm)
Average57 °F70%30.22 "Hg
* Reported Oct 8 6:00 am — Oct 23 6:00 am, Mödling. Weather by CustomWeather, © 2018

Note: Actual official high and low records may vary slightly from our data, if they occured in-between our weather recording intervals... More about our weather records

Advertising

Mödling Weather History for the Previous 24 Hours

Scroll right to see more
 ConditionsComfort  
Time TempWeatherWind HumidityBarometerVisibility
6:00 am
Tue, Oct 23
50 °FCool.5 mph79%30.30 "HgN/A
5:00 am51 °FCool.5 mph81%30.31 "HgN/A
4:00 am51 °FCool.6 mph84%30.31 "HgN/A
3:00 am50 °FFog.5 mph83%30.32 "HgN/A
2:00 am51 °FLight rain. Overcast.5 mph80%30.32 "Hg9 mi
1:00 am53 °FCool.6 mph67%30.32 "HgN/A
12:00 am54 °FCool.6 mph57%30.32 "HgN/A
11:00 pm
Mon, Oct 22
54 °FOvercast.5 mph58%30.32 "Hg19 mi
9:00 pm54 °FOvercast.6 mph57%30.29 "Hg19 mi
8:00 pm54 °FPassing clouds.6 mph60%30.29 "Hg19 mi
7:00 pm50 °FPassing clouds.2 mph72%30.29 "Hg19 mi
6:00 pm53 °FPassing clouds.2 mph66%30.27 "Hg19 mi
5:00 pm56 °FPassing clouds.2 mph57%30.27 "Hg19 mi
3:00 pm58 °FSunny.3 mph55%30.28 "Hg16 mi
1:00 pm55 °FSunny.3 mph59%30.32 "Hg12 mi
12:00 pm54 °FPassing clouds.3 mph60%30.34 "Hg10 mi
11:00 am51 °FPassing clouds.1 mph66%30.35 "Hg6 mi
10:00 am47 °FOvercast.1 mph79%30.36 "Hg6 mi
9:00 am45 °FOvercast.1 mph81%30.36 "Hg6 mi
Weather by CustomWeather, © 2018

See weather overview